Flag for Germany Weather past 2 weeks in Güstrow, Mecklenburg-Western Pomerania, Germany

Now
70 °F

Partly sunny.


Feels Like: 70 °F
Forecast: 62 / 80 °F
Wind: 10 mph from Northeast

Location: Laage

Current Time: Jul 25, 2014 at 9:33:00 AM

Latest Report: Jul 25, 2014 at 8:20 AM


Visibility: N/A

Pressure: 30.01 "Hg

Humidity: 78%

Dew point: 63 °F

Location of GüstrowLocation

Historic Weather in Güstrow — Graph

°F

Güstrow temperature yesterday

Maximum temperature yesterday: 81 °F (at 1:20 PM)
Minimum temperature yesterday: 61 °F (at 5:20 AM)
Average temperature yesterday: 71 °F

Past Weeks' High & Low Weather Summary

 TemperatureHumidityPressure
High84 °F (Jul 19, 2:20 PM)100% (Jul 12, 10:20 PM)30.18 "Hg (Jul 12, 10:20 PM)
Low55 °F (Jul 12, 10:20 PM)35% (Jul 19, 3:20 PM)29.68 "Hg (Jul 13, 5:20 PM)
Average68 °F72%30.00 "Hg
* Reported Jul 10 7:20 AM — Jul 25 7:20 AM, Güstrow, Weather by CustomWeather, © 2014

Note: Actual official high and low records may vary slightly from our data, if they occured in-between our weather recording intervals... More about our weather records

Advertising

Güstrow weather history for previous 24 hours

 ConditionsComfort  
Time TempWeatherWind HumidityBarometerVisibility
7:20 AM
Jul 25
68 °FPartly sunny.10 mph83%30.01 "HgN/A
6:20 AM64 °FPartly sunny.8 mph88%30.01 "HgN/A
5:20 AM64 °FPassing clouds.7 mph88%30.01 "HgN/A
4:20 AM64 °FPassing clouds.6 mph88%30.01 "HgN/A
3:20 AM64 °FPassing clouds.9 mph88%30.01 "HgN/A
2:20 AM64 °FLight rain. Passing clouds.6 mph83%30.04 "HgN/A
1:20 AM66 °FLight rain. Partly cloudy.6 mph73%30.07 "HgN/A
12:20 AM66 °FLight rain. Partly cloudy.6 mph68%30.07 "HgN/A
11:20 PM
Jul 24
68 °FPassing clouds.6 mph69%30.07 "HgN/A
10:20 PM68 °FPartly sunny.6 mph69%30.07 "HgN/A
9:20 PM70 °FPartly sunny.7 mph64%30.07 "HgN/A
8:20 PM72 °FBroken clouds.10 mph61%30.07 "HgN/A
7:20 PM73 °FPartly sunny.14 mph47%30.04 "HgN/A
6:20 PM75 °FPartly sunny.15 mph41%30.07 "HgN/A
5:20 PM77 °FPartly sunny.17 mph39%30.07 "HgN/A
4:20 PM79 °FPartly sunny.17 mph39%30.07 "HgN/A
3:20 PM79 °FPartly sunny.18 mph42%30.07 "HgN/A
2:20 PM79 °FPartly sunny.16 mph42%30.07 "HgN/A
1:20 PM81 °FPartly sunny.21 mph39%30.07 "HgN/A
12:20 PM79 °FPartly sunny.16 mph48%30.07 "HgN/A
11:20 AM77 °FPartly sunny.13 mph57%30.09 "HgN/A
10:20 AM73 °FPartly sunny.13 mph65%30.09 "HgN/A
9:20 AM72 °FPartly sunny.13 mph73%30.09 "HgN/A
Weather by CustomWeather, © 2014

See weather overviewHow to use our weather pages